User: anonymous   Login
Location: Unspecified
(51.2667°N, 0.0000°E)
Time: 04:49:53
(UTC+00:00)
Language:

DX 1 - Orbit

View from above orbital plane
View from above orbital plane
View from above satellite
View from above satellite

Ground track
Ground track

The orbit data is extracted from the following two-line orbital elements,

1 40071U 14037C   19232.84902472  .00000040  00000-0  12707-4 0  9995
2 40071  98.4341  29.9827 0009157  30.8599 329.3155 14.81283455276606
Epoch (UTC): 20 August 2019 20:22:35
Eccentricity: 0.0009157
inclination: 98.4341°
perigee height: 619 km
apogee height: 631 km
right ascension of ascending node: 29.9827°
argument of perigee: 30.8599°
revolutions per day: 14.81283455
mean anomaly at epoch: 329.3155°
orbit number at epoch: 27660

The dashed part of the orbit path shows where the satellite is in the earth's shadow,  

DLR